星链-37488(STARLINK-37488)

导读

STARLINK-37488(NORAD编号68859)是美国SpaceX公司星链(Starlink)卫星互联网星座的一员,属于低轨通信卫星。星链项目旨在通过大规模低轨卫星组网,为全球尤其是地面基础设施覆盖不足的偏远地区提供高速低延迟互联网接入服务,同时也可支持军事与应急通信场景。 该卫星运行于近地轨道,具备星链星座典型的小型化设计,依靠星座组网实现全球通信覆盖,目前处于在轨运行状态。作为星链持续扩张星座部署的组成部分,它进一步完善了星链的全球服务能力,但也和其他星链卫星一同引发了关于太空拥堵、天文观测干扰等领域的讨论。

Basic Information
目录编号:
68859
目录名称:
STARLINK-37488
国际标识:
2026-094W
轨道中心:
EARTH
卫星名称:
星链-37488
卫星全名:
星链-37488(STARLINK-37488)
卫星状态:
在轨 (已飞行131 天)
发射日期:
2026-04-26 UTC
国别 :
美国 (US)
星等 :
--
Orbit Information
数据来源 国际轨道数据 AOE轨道数据
星历时间 2026-09-04T00:20:07+0800
21小时前
查看轨道信息
2026-08-31T02:00:00+0800
4天前
查看轨道信息
半长轴 6843.677km 6843.745km
偏心率 0.0001969 0.0002532
轨道倾角 97.285° 97.284°
近地点辐角 86.178° 78.408°
升交点赤经 260.099° 256.225°
平近点角 273.969° 197.213°
近地点 464.192km 463.875km
远地点 466.888km 467.341km
周期 93.906分钟 93.908分钟
每日圈数 15.334464 15.334233
Detailed Information
固有亮度:
5
最大亮度:
2.5
卫星平台:
Starlink V1.0
覆盖范围:
全球
运营商:
太空探索技术公司
运营商所在国:
美国
制造商(研发单位):
太空探索技术公司
制造商所在国:
美国
使用方式:
暂无
Satellite Introduction
Starlink 计划是 SpaceX 推出的全球卫星互联网项目,通过发射低轨道卫星,为全球尤其是偏远地区提供高速、低延迟的互联网服务。自 2019 年起,Starlink 已部署数千颗卫星,旨在缩小全球数字鸿沟,推动互联网普及。该项目还为军事、航空等行业提供通信支持,带来广泛经济效益。
2D Orbit Map
3D Orbit Map
Orbit Altitude Analysis Chart
Orbit Inclination Analysis Chart
Orbit Comprehensive Analysis Chart
View Comprehensive Chart
Conjunction Data List
Event ID Objects TCA Miss Dist (km) Collision Risk Probability Collision Risk Index (CRI) Action
CDM_260905-231505-941306-885921
2026-09-05T
23:15:34+0000
0.696 km
远距离
8.42036E-5 中风险 0.74
CDM_260831-132105-236406-885921
2026-08-31T
13:21:36+0000
1.531 km
极远距离
6.02536E-6 低风险 0.51
CDM_260906-232802-058006-885921
HST (20580)
2026-09-06T
23:28:08+0000
1.412 km
极远距离
5.764851E-6 低风险 0.5
CDM_260905-064606-534906-885921
2026-09-05T
06:46:05+0000
2.230 km
极远距离
2.199021E-6 低风险 0.42
CDM_260905-100006-541006-885921
2026-09-05T
10:00:57+0000
2.409 km
极远距离
1.834845E-6 低风险 0.4
CDM_260906-122806-533206-885921
2026-09-06T
12:28:33+0000
2.555 km
极远距离
1.68663E-6 低风险 0.4
CDM_260906-061204-777006-885921
2026-09-06T
06:12:05+0000
2.609 km
极远距离
1.62925E-6 低风险 0.39
CDM_260905-144206-542406-885921
2026-09-05T
14:42:39+0000
2.694 km
极远距离
1.514435E-6 低风险 0.39
CDM_260906-094806-402206-885921
2026-09-06T
09:48:03+0000
2.637 km
极远距离
1.483175E-6 低风险 0.38
CDM_260905-034706-547806-885921
2026-09-05T
03:47:54+0000
2.680 km
极远距离
1.44869E-6 低风险 0.38